Year,Month,Day,Hour,Minute,Value (Times are PST for windgust in km/hr)
2019,02,24,00,00,1.60
2019,02,24,00,01,1.60
2019,02,24,00,05,1.60
2019,02,24,00,07,3.20
2019,02,24,00,08,4.80
2019,02,24,00,09,1.60
2019,02,24,00,10,1.60
2019,02,24,00,11,3.20
2019,02,24,00,12,3.20
2019,02,24,00,13,1.60
2019,02,24,00,14,1.60
2019,02,24,00,15,1.60
2019,02,24,00,16,1.60
2019,02,24,00,17,4.80
2019,02,24,00,18,4.80
2019,02,24,00,19,3.20
2019,02,24,00,20,9.60
2019,02,24,00,21,11.30
2019,02,24,00,22,4.80
2019,02,24,00,23,3.20
2019,02,24,00,24,1.60
2019,02,24,00,25,3.20
2019,02,24,00,26,3.20
2019,02,24,00,27,4.80
2019,02,24,00,28,4.80
2019,02,24,00,29,3.20
2019,02,24,00,30,3.20
2019,02,24,00,31,4.80
2019,02,24,00,32,4.80
2019,02,24,00,33,1.60
2019,02,24,00,34,1.60
2019,02,24,00,35,4.80
2019,02,24,00,36,3.20
2019,02,24,00,37,1.60
2019,02,24,00,38,1.60
2019,02,24,00,39,1.60
2019,02,24,00,40,8.10
2019,02,24,00,41,9.60
2019,02,24,00,42,8.10
2019,02,24,00,43,4.80
2019,02,24,00,44,1.60
2019,02,24,00,45,4.80
2019,02,24,00,46,4.80
2019,02,24,00,47,1.60
2019,02,24,00,48,1.60
2019,02,24,00,49,1.60
2019,02,24,00,50,1.60
2019,02,24,00,51,3.20
2019,02,24,00,52,3.20
2019,02,24,00,53,6.40
2019,02,24,00,54,3.20
2019,02,24,00,55,3.20
2019,02,24,00,56,3.20
2019,02,24,00,57,4.80
2019,02,24,00,58,4.80
2019,02,24,00,59,3.20
2019,02,24,01,00,4.80
2019,02,24,01,01,6.40
2019,02,24,01,02,4.80
2019,02,24,01,03,4.80
2019,02,24,01,04,3.20
2019,02,24,01,05,4.80
2019,02,24,01,06,3.20
2019,02,24,01,07,3.20
2019,02,24,01,08,3.20
2019,02,24,01,09,4.80
2019,02,24,01,10,4.80
2019,02,24,01,11,6.40
2019,02,24,01,12,4.80
2019,02,24,01,13,1.60
2019,02,24,01,14,1.60
2019,02,24,01,15,1.60
2019,02,24,01,16,4.80
2019,02,24,01,17,3.20
2019,02,24,01,18,3.20
2019,02,24,01,19,3.20
2019,02,24,01,20,1.60
2019,02,24,01,21,1.60
2019,02,24,01,22,1.60
2019,02,24,01,27,1.60
2019,02,24,01,28,1.60
2019,02,24,01,29,1.60
2019,02,24,01,30,1.60
2019,02,24,01,31,1.60
2019,02,24,01,32,1.60
2019,02,24,01,33,3.20
2019,02,24,01,34,1.60
2019,02,24,01,37,1.60
2019,02,24,01,38,1.60
2019,02,24,01,46,1.60
2019,02,24,01,47,1.60
2019,02,24,01,48,1.60
2019,02,24,01,49,1.60
2019,02,24,01,59,1.60
2019,02,24,02,23,1.60
2019,02,24,02,24,1.60
2019,02,24,02,25,1.60
2019,02,24,02,26,1.60
2019,02,24,02,27,1.60
2019,02,24,02,28,1.60
2019,02,24,02,29,1.60
2019,02,24,02,30,1.60
2019,02,24,02,31,3.20
2019,02,24,02,32,3.20
2019,02,24,02,33,1.60
2019,02,24,02,34,1.60
2019,02,24,02,35,3.20
2019,02,24,02,36,1.60
2019,02,24,02,37,1.60
2019,02,24,02,38,1.60
2019,02,24,02,39,1.60
2019,02,24,02,40,1.60
2019,02,24,02,41,1.60
2019,02,24,02,42,1.60
2019,02,24,02,43,3.20
2019,02,24,02,44,1.60
2019,02,24,02,45,1.60
2019,02,24,02,46,1.60
2019,02,24,02,47,1.60
2019,02,24,02,48,1.60
2019,02,24,03,29,1.60
2019,02,24,03,30,1.60
2019,02,24,03,31,1.60
2019,02,24,03,34,1.60
2019,02,24,03,35,8.10
2019,02,24,03,36,4.80
2019,02,24,03,37,4.80
2019,02,24,03,42,1.60
2019,02,24,03,43,1.60
2019,02,24,03,44,3.20
2019,02,24,03,45,1.60
2019,02,24,03,47,3.20
2019,02,24,03,48,3.20
2019,02,24,03,49,3.20
2019,02,24,03,50,3.20
2019,02,24,03,51,6.40
2019,02,24,03,52,4.80
2019,02,24,03,53,1.60
2019,02,24,03,54,3.20
2019,02,24,03,55,9.60
2019,02,24,03,56,6.40
2019,02,24,03,57,4.80
2019,02,24,03,58,8.10
2019,02,24,03,59,3.20
2019,02,24,04,00,1.60
2019,02,24,04,01,3.20
2019,02,24,04,02,1.60
2019,02,24,04,04,4.80
2019,02,24,04,05,3.20
2019,02,24,04,06,1.60
2019,02,24,04,07,6.40
2019,02,24,04,08,3.20
2019,02,24,04,09,1.60
2019,02,24,04,10,9.60
2019,02,24,04,11,11.30
2019,02,24,04,12,1.60
2019,02,24,04,13,6.40
2019,02,24,04,14,3.20
2019,02,24,04,15,3.20
2019,02,24,04,17,3.20
2019,02,24,04,18,3.20
2019,02,24,04,19,3.20
2019,02,24,04,20,3.20
2019,02,24,04,21,1.60
2019,02,24,04,22,3.20
2019,02,24,04,23,4.80
2019,02,24,04,24,8.10
2019,02,24,04,25,8.10
2019,02,24,04,26,4.80
2019,02,24,04,27,6.40
2019,02,24,04,28,1.60
2019,02,24,04,29,1.60
2019,02,24,04,30,3.20
2019,02,24,04,31,3.20
2019,02,24,04,32,12.90
2019,02,24,04,33,11.30
2019,02,24,04,34,4.80
2019,02,24,04,35,3.20
2019,02,24,04,37,1.60
2019,02,24,04,38,6.40
2019,02,24,04,39,3.20
2019,02,24,04,40,6.40
2019,02,24,04,41,3.20
2019,02,24,04,42,3.20
2019,02,24,04,43,1.60
2019,02,24,04,44,6.40
2019,02,24,04,45,4.80
2019,02,24,04,46,6.40
2019,02,24,04,47,3.20
2019,02,24,04,48,4.80
2019,02,24,04,49,3.20
2019,02,24,04,50,3.20
2019,02,24,04,51,3.20
2019,02,24,04,52,3.20
2019,02,24,04,53,3.20
2019,02,24,04,54,1.60
2019,02,24,04,55,3.20
2019,02,24,04,56,3.20
2019,02,24,04,57,6.40
2019,02,24,04,58,9.60
2019,02,24,04,59,9.60
2019,02,24,05,00,9.60
2019,02,24,05,01,3.20
2019,02,24,05,02,4.80
2019,02,24,05,03,4.80
2019,02,24,05,04,6.40
2019,02,24,05,05,8.10
2019,02,24,05,06,4.80
2019,02,24,05,07,3.20
2019,02,24,05,08,3.20
2019,02,24,05,09,3.20
2019,02,24,05,10,3.20
2019,02,24,05,11,4.80
2019,02,24,05,12,4.80
2019,02,24,05,13,4.80
2019,02,24,05,14,3.20
2019,02,24,05,15,3.20
2019,02,24,05,16,3.20
2019,02,24,05,17,3.20
2019,02,24,05,18,1.60
2019,02,24,05,19,3.20
2019,02,24,05,20,3.20
2019,02,24,05,21,8.10
2019,02,24,05,22,3.20
2019,02,24,05,23,1.60
2019,02,24,05,24,1.60
2019,02,24,05,25,1.60
2019,02,24,05,26,3.20
2019,02,24,05,27,1.60
2019,02,24,05,28,1.60
2019,02,24,05,29,3.20
2019,02,24,05,30,3.20
2019,02,24,05,31,1.60
2019,02,24,05,32,6.40
2019,02,24,05,33,4.80
2019,02,24,05,34,1.60
2019,02,24,05,35,3.20
2019,02,24,05,36,3.20
2019,02,24,05,37,1.60
2019,02,24,05,38,1.60
2019,02,24,05,39,1.60
2019,02,24,05,40,3.20
2019,02,24,05,41,1.60
2019,02,24,05,42,3.20
2019,02,24,05,43,3.20
2019,02,24,05,44,3.20
2019,02,24,05,45,1.60
2019,02,24,05,46,4.80
2019,02,24,05,47,1.60
2019,02,24,05,48,1.60
2019,02,24,05,49,1.60
2019,02,24,05,50,1.60
2019,02,24,05,51,1.60
2019,02,24,05,52,1.60
2019,02,24,05,53,4.80
2019,02,24,05,54,3.20
2019,02,24,05,55,3.20
2019,02,24,05,56,1.60
2019,02,24,05,57,1.60
2019,02,24,05,58,1.60
2019,02,24,05,59,1.60
2019,02,24,06,00,1.60
2019,02,24,06,01,1.60
2019,02,24,06,02,1.60
2019,02,24,06,03,3.20
2019,02,24,06,04,1.60
2019,02,24,06,05,1.60
2019,02,24,06,07,1.60
2019,02,24,06,08,1.60
2019,02,24,06,09,3.20
2019,02,24,06,10,1.60
2019,02,24,06,11,1.60
2019,02,24,06,12,1.60
2019,02,24,06,13,3.20
2019,02,24,06,14,3.20
2019,02,24,06,15,3.20
2019,02,24,06,16,3.20
2019,02,24,06,17,3.20
2019,02,24,06,18,3.20
2019,02,24,06,19,3.20
2019,02,24,06,20,1.60
2019,02,24,06,21,3.20
2019,02,24,06,22,3.20
2019,02,24,06,23,1.60
2019,02,24,06,24,3.20
2019,02,24,06,25,3.20
2019,02,24,06,26,1.60
2019,02,24,06,27,1.60
2019,02,24,06,28,3.20
2019,02,24,06,29,1.60
2019,02,24,06,30,1.60
2019,02,24,06,31,1.60
2019,02,24,06,32,1.60
2019,02,24,06,33,1.60
2019,02,24,06,34,1.60
2019,02,24,06,35,1.60
2019,02,24,06,36,1.60
2019,02,24,06,37,1.60
2019,02,24,06,38,3.20
2019,02,24,06,39,3.20
2019,02,24,06,40,3.20
2019,02,24,06,41,1.60
2019,02,24,06,45,1.60
2019,02,24,06,49,1.60
2019,02,24,06,50,1.60
2019,02,24,06,54,1.60
2019,02,24,06,55,1.60
2019,02,24,06,56,1.60
2019,02,24,06,57,1.60
2019,02,24,07,01,1.60
2019,02,24,07,02,1.60
2019,02,24,07,03,1.60
2019,02,24,07,05,1.60
2019,02,24,07,09,1.60
2019,02,24,07,10,3.20
2019,02,24,07,11,3.20
2019,02,24,07,12,1.60
2019,02,24,07,13,1.60
2019,02,24,07,23,1.60
2019,02,24,07,24,3.20
2019,02,24,07,25,3.20
2019,02,24,07,26,1.60
2019,02,24,07,27,3.20
2019,02,24,07,28,3.20
2019,02,24,07,29,1.60
2019,02,24,07,30,1.60
2019,02,24,07,31,1.60
2019,02,24,07,32,1.60
2019,02,24,07,34,1.60
2019,02,24,07,35,1.60
2019,02,24,07,36,1.60
2019,02,24,07,37,1.60
2019,02,24,07,38,1.60
2019,02,24,07,39,1.60
2019,02,24,07,40,3.20
2019,02,24,07,41,3.20
2019,02,24,07,42,1.60
2019,02,24,07,43,1.60
2019,02,24,07,46,3.20
2019,02,24,07,47,3.20
2019,02,24,07,48,3.20
2019,02,24,07,49,3.20
2019,02,24,07,50,4.80
2019,02,24,07,51,1.60
2019,02,24,07,52,4.80
2019,02,24,07,53,4.80
2019,02,24,07,54,1.60
2019,02,24,07,55,4.80
2019,02,24,07,56,4.80
2019,02,24,07,57,6.40
2019,02,24,07,58,9.60
2019,02,24,07,59,6.40
2019,02,24,08,00,4.80
2019,02,24,08,01,4.80
2019,02,24,08,02,4.80
2019,02,24,08,03,4.80
2019,02,24,08,04,4.80
2019,02,24,08,05,4.80
2019,02,24,08,06,1.60
2019,02,24,08,07,3.20
2019,02,24,08,08,3.20
2019,02,24,08,09,3.20
2019,02,24,08,10,1.60
2019,02,24,08,11,3.20
2019,02,24,08,12,3.20
2019,02,24,08,13,3.20
2019,02,24,08,14,3.20
2019,02,24,08,15,3.20
2019,02,24,08,16,3.20
2019,02,24,08,18,3.20
2019,02,24,08,19,3.20
2019,02,24,08,20,3.20
2019,02,24,08,21,1.60
2019,02,24,08,22,1.60
2019,02,24,08,23,3.20
2019,02,24,08,24,4.80
2019,02,24,08,25,3.20
2019,02,24,08,27,1.60
2019,02,24,08,28,1.60
2019,02,24,08,33,3.20
2019,02,24,08,34,3.20
2019,02,24,08,35,6.40
2019,02,24,08,36,4.80
2019,02,24,08,37,4.80
2019,02,24,08,38,4.80
2019,02,24,08,39,3.20
2019,02,24,08,41,1.60
2019,02,24,08,42,3.20
2019,02,24,08,43,4.80
2019,02,24,08,44,3.20
2019,02,24,08,45,3.20
2019,02,24,08,46,6.40
2019,02,24,08,47,4.80
2019,02,24,08,48,8.10
2019,02,24,08,49,6.40
2019,02,24,08,50,6.40
2019,02,24,08,51,3.20
2019,02,24,08,52,3.20
2019,02,24,08,53,1.60
2019,02,24,08,54,1.60
2019,02,24,08,55,4.80
2019,02,24,08,56,4.80
2019,02,24,08,57,4.80
2019,02,24,08,58,3.20
2019,02,24,08,59,1.60
2019,02,24,09,00,1.60
2019,02,24,09,01,1.60
2019,02,24,09,02,3.20
2019,02,24,09,03,3.20
2019,02,24,09,04,3.20
2019,02,24,09,05,3.20
2019,02,24,09,06,1.60
2019,02,24,09,07,1.60
2019,02,24,09,09,1.60
2019,02,24,09,10,4.80
2019,02,24,09,11,3.20
2019,02,24,09,12,1.60
2019,02,24,09,13,1.60
2019,02,24,09,14,3.20
2019,02,24,09,15,3.20
2019,02,24,09,16,8.10
2019,02,24,09,17,3.20
2019,02,24,09,18,1.60
2019,02,24,09,19,1.60
2019,02,24,09,20,1.60
2019,02,24,09,21,1.60
2019,02,24,09,22,14.50
2019,02,24,09,23,8.10
2019,02,24,09,24,6.40
2019,02,24,09,25,1.60
2019,02,24,09,26,3.20
2019,02,24,09,27,4.80
2019,02,24,09,28,4.80
2019,02,24,09,29,4.80
2019,02,24,09,30,1.60
2019,02,24,09,31,1.60
2019,02,24,09,32,3.20
2019,02,24,09,33,3.20
2019,02,24,09,34,1.60
2019,02,24,09,35,6.40
2019,02,24,09,36,6.40
2019,02,24,09,37,3.20
2019,02,24,09,39,3.20
2019,02,24,09,40,3.20
2019,02,24,09,41,4.80
2019,02,24,09,42,4.80
2019,02,24,09,43,6.40
2019,02,24,09,44,1.60
2019,02,24,09,45,3.20
2019,02,24,09,46,11.30
2019,02,24,09,47,6.40
2019,02,24,09,48,6.40
2019,02,24,09,49,11.30
2019,02,24,09,50,9.60
2019,02,24,09,51,12.90
2019,02,24,09,52,8.10
2019,02,24,09,53,9.60
2019,02,24,09,54,12.90
2019,02,24,09,55,9.60
2019,02,24,09,56,3.20
2019,02,24,09,57,3.20
2019,02,24,09,58,1.60
2019,02,24,09,59,1.60
2019,02,24,10,00,6.40
2019,02,24,10,01,9.60
2019,02,24,10,02,8.10
2019,02,24,10,03,6.40
2019,02,24,10,04,3.20
2019,02,24,10,05,3.20
2019,02,24,10,06,3.20
2019,02,24,10,07,12.90
2019,02,24,10,08,6.40
2019,02,24,10,09,8.10
2019,02,24,10,10,11.30
2019,02,24,10,11,11.30
2019,02,24,10,12,4.80
2019,02,24,10,13,3.20
2019,02,24,10,14,3.20
2019,02,24,10,15,3.20
2019,02,24,10,16,6.40
2019,02,24,10,17,4.80
2019,02,24,10,18,3.20
2019,02,24,10,19,3.20
2019,02,24,10,20,4.80
2019,02,24,10,21,3.20
2019,02,24,10,22,8.10
2019,02,24,10,23,12.90
2019,02,24,10,24,4.80
2019,02,24,10,25,4.80
2019,02,24,10,26,4.80
2019,02,24,10,27,6.40
2019,02,24,10,28,6.40
2019,02,24,10,29,6.40
2019,02,24,10,30,4.80
2019,02,24,10,31,4.80
2019,02,24,10,32,3.20
2019,02,24,10,33,1.60
2019,02,24,10,34,3.20
2019,02,24,10,35,8.10
2019,02,24,10,36,8.10
2019,02,24,10,37,9.60
2019,02,24,10,38,4.80
2019,02,24,10,39,6.40
2019,02,24,10,40,8.10
2019,02,24,10,41,6.40
2019,02,24,10,42,3.20
2019,02,24,10,43,3.20
2019,02,24,10,44,8.10
2019,02,24,10,45,4.80
2019,02,24,10,46,6.40
2019,02,24,10,47,4.80
2019,02,24,10,48,4.80
2019,02,24,10,49,3.20
2019,02,24,10,50,4.80
2019,02,24,10,51,11.30
2019,02,24,10,52,6.40
2019,02,24,10,53,3.20
2019,02,24,10,54,4.80
2019,02,24,10,55,4.80
2019,02,24,10,56,3.20
2019,02,24,10,57,1.60
2019,02,24,10,58,4.80
2019,02,24,10,59,6.40
2019,02,24,11,00,11.30
2019,02,24,11,01,11.30
2019,02,24,11,02,8.10
2019,02,24,11,03,6.40
2019,02,24,11,04,11.30
2019,02,24,11,05,12.90
2019,02,24,11,06,3.20
2019,02,24,11,07,3.20
2019,02,24,11,08,1.60
2019,02,24,11,09,3.20
2019,02,24,11,10,3.20
2019,02,24,11,11,3.20
2019,02,24,11,12,3.20
2019,02,24,11,13,11.30
2019,02,24,11,14,3.20
2019,02,24,11,15,6.40
2019,02,24,11,16,4.80
2019,02,24,11,17,4.80
2019,02,24,11,18,4.80
2019,02,24,11,19,8.10
2019,02,24,11,20,6.40
2019,02,24,11,21,9.60
2019,02,24,11,22,9.60
2019,02,24,11,23,4.80
2019,02,24,11,24,8.10
2019,02,24,11,25,4.80
2019,02,24,11,26,6.40
2019,02,24,11,27,9.60
2019,02,24,11,28,6.40
2019,02,24,11,29,8.10
2019,02,24,11,30,3.20
2019,02,24,11,31,9.60
2019,02,24,11,32,12.90
2019,02,24,11,33,6.40
2019,02,24,11,34,1.60
2019,02,24,11,36,3.20
2019,02,24,11,37,3.20
2019,02,24,11,38,1.60
2019,02,24,11,39,3.20
2019,02,24,11,40,1.60
2019,02,24,11,42,8.10
2019,02,24,11,43,9.60
2019,02,24,11,44,3.20
2019,02,24,11,45,11.30
2019,02,24,11,46,6.40
2019,02,24,11,47,6.40
2019,02,24,11,48,8.10
2019,02,24,11,49,11.30
2019,02,24,11,50,8.10
2019,02,24,11,51,12.90
2019,02,24,11,52,9.60
2019,02,24,11,53,12.90
2019,02,24,11,54,12.90
2019,02,24,11,55,6.40
2019,02,24,11,56,9.60
2019,02,24,11,57,11.30
2019,02,24,11,58,14.50
2019,02,24,11,59,14.50
2019,02,24,12,00,9.60
2019,02,24,12,01,11.30
2019,02,24,12,02,6.40
2019,02,24,12,03,8.10
2019,02,24,12,04,4.80
2019,02,24,12,05,4.80
2019,02,24,12,06,12.90
2019,02,24,12,07,11.30
2019,02,24,12,08,8.10
2019,02,24,12,09,12.90
2019,02,24,12,10,6.40
2019,02,24,12,11,9.60
2019,02,24,12,12,8.10
2019,02,24,12,13,4.80
2019,02,24,12,14,11.30
2019,02,24,12,15,9.60
2019,02,24,12,16,6.40
2019,02,24,12,17,9.60
2019,02,24,12,18,20.90
2019,02,24,12,19,11.30
2019,02,24,12,20,12.90
2019,02,24,12,21,11.30
2019,02,24,12,22,11.30
2019,02,24,12,23,9.60
2019,02,24,12,24,4.80
2019,02,24,12,25,12.90
2019,02,24,12,26,8.10
2019,02,24,12,27,6.40
2019,02,24,12,28,9.60
2019,02,24,12,29,11.30
2019,02,24,12,30,9.60
2019,02,24,12,31,8.10
2019,02,24,12,32,11.30
2019,02,24,12,33,9.60
2019,02,24,12,34,6.40
2019,02,24,12,35,6.40
2019,02,24,12,36,12.90
2019,02,24,12,37,6.40
2019,02,24,12,38,16.10
2019,02,24,12,39,12.90
2019,02,24,12,40,4.80
2019,02,24,12,41,8.10
2019,02,24,12,42,16.10
2019,02,24,12,43,12.90
2019,02,24,12,44,11.30
2019,02,24,12,45,6.40
2019,02,24,12,46,14.50
2019,02,24,12,47,9.60
2019,02,24,12,48,12.90
2019,02,24,12,49,6.40
2019,02,24,12,50,6.40
2019,02,24,12,51,4.80
2019,02,24,12,52,4.80
2019,02,24,12,53,6.40
2019,02,24,12,54,9.60
2019,02,24,12,55,6.40
2019,02,24,12,56,11.30
2019,02,24,12,57,9.60
2019,02,24,12,58,6.40
2019,02,24,12,59,3.20
2019,02,24,13,00,6.40
2019,02,24,13,01,6.40
2019,02,24,13,02,8.10
2019,02,24,13,03,8.10
2019,02,24,13,04,6.40
2019,02,24,13,05,4.80
2019,02,24,13,06,6.40
2019,02,24,13,07,9.60
2019,02,24,13,08,12.90
2019,02,24,13,09,4.80
2019,02,24,13,10,12.90
2019,02,24,13,11,11.30
2019,02,24,13,12,8.10
2019,02,24,13,13,8.10
2019,02,24,13,14,6.40
2019,02,24,13,15,6.40
2019,02,24,13,16,4.80
2019,02,24,13,17,6.40
2019,02,24,13,18,4.80
2019,02,24,13,19,6.40
2019,02,24,13,20,6.40
2019,02,24,13,21,6.40
2019,02,24,13,22,8.10
2019,02,24,13,23,11.30
2019,02,24,13,24,19.30
2019,02,24,13,25,12.90
2019,02,24,13,26,11.30
2019,02,24,13,27,6.40
2019,02,24,13,28,6.40
2019,02,24,13,29,8.10
2019,02,24,13,30,11.30
2019,02,24,13,31,11.30
2019,02,24,13,32,6.40
2019,02,24,13,33,9.60
2019,02,24,13,34,9.60
2019,02,24,13,35,11.30
2019,02,24,13,36,11.30
2019,02,24,13,37,9.60
2019,02,24,13,38,6.40
2019,02,24,13,39,6.40
2019,02,24,13,40,6.40
2019,02,24,13,41,6.40
2019,02,24,13,42,4.80
2019,02,24,13,43,11.30
2019,02,24,13,44,9.60
2019,02,24,13,45,9.60
2019,02,24,13,46,9.60
2019,02,24,13,47,11.30
2019,02,24,13,48,4.80
2019,02,24,13,49,4.80
2019,02,24,13,50,11.30
2019,02,24,13,51,6.40
2019,02,24,13,52,6.40
2019,02,24,13,53,6.40
2019,02,24,13,54,3.20
2019,02,24,13,55,8.10
2019,02,24,13,56,8.10
2019,02,24,13,57,12.90
2019,02,24,13,58,6.40
2019,02,24,13,59,9.60
2019,02,24,14,00,11.30
2019,02,24,14,01,6.40
2019,02,24,14,02,6.40
2019,02,24,14,03,11.30
2019,02,24,14,04,11.30
2019,02,24,14,05,6.40
2019,02,24,14,06,6.40
2019,02,24,14,07,8.10
2019,02,24,14,08,12.90
2019,02,24,14,09,16.10
2019,02,24,14,10,11.30
2019,02,24,14,11,6.40
2019,02,24,14,12,9.60
2019,02,24,14,13,12.90
2019,02,24,14,14,9.60
2019,02,24,14,15,4.80
2019,02,24,14,16,6.40
2019,02,24,14,17,6.40
2019,02,24,14,18,4.80
2019,02,24,14,19,3.20
2019,02,24,14,20,11.30
2019,02,24,14,21,11.30
2019,02,24,14,22,9.60
2019,02,24,14,23,11.30
2019,02,24,14,24,12.90
2019,02,24,14,25,12.90
2019,02,24,14,26,14.50
2019,02,24,14,27,16.10
2019,02,24,14,28,9.60
2019,02,24,14,29,11.30
2019,02,24,14,30,11.30
2019,02,24,14,31,6.40
2019,02,24,14,32,8.10
2019,02,24,14,33,6.40
2019,02,24,14,34,9.60
2019,02,24,14,35,9.60
2019,02,24,14,36,12.90
2019,02,24,14,37,6.40
2019,02,24,14,38,11.30
2019,02,24,14,39,3.20
2019,02,24,14,40,9.60
2019,02,24,14,41,6.40
2019,02,24,14,42,4.80
2019,02,24,14,43,3.20
2019,02,24,14,44,11.30
2019,02,24,14,45,11.30
2019,02,24,14,46,6.40
2019,02,24,14,47,11.30
2019,02,24,14,48,11.30
2019,02,24,14,49,8.10
2019,02,24,14,50,9.60
2019,02,24,14,51,9.60
2019,02,24,14,52,6.40
2019,02,24,14,53,6.40
2019,02,24,14,54,3.20
2019,02,24,14,55,11.30
2019,02,24,14,56,11.30
2019,02,24,14,57,14.50
2019,02,24,14,58,16.10
2019,02,24,14,59,16.10
2019,02,24,15,00,12.90
2019,02,24,15,01,12.90
2019,02,24,15,02,8.10
2019,02,24,15,03,9.60
2019,02,24,15,04,11.30
2019,02,24,15,05,9.60
2019,02,24,15,06,12.90
2019,02,24,15,07,12.90
2019,02,24,15,08,6.40
2019,02,24,15,09,12.90
2019,02,24,15,10,11.30
2019,02,24,15,11,6.40
2019,02,24,15,12,11.30
2019,02,24,15,13,9.60
2019,02,24,15,14,8.10
2019,02,24,15,15,6.40
2019,02,24,15,16,9.60
2019,02,24,15,17,6.40
2019,02,24,15,18,4.80
2019,02,24,15,19,6.40
2019,02,24,15,20,11.30
2019,02,24,15,21,8.10
2019,02,24,15,22,11.30
2019,02,24,15,23,6.40
2019,02,24,15,24,11.30
2019,02,24,15,25,8.10
2019,02,24,15,26,4.80
2019,02,24,15,27,4.80
2019,02,24,15,28,11.30
2019,02,24,15,29,6.40
2019,02,24,15,30,12.90
2019,02,24,15,31,4.80
2019,02,24,15,32,4.80
2019,02,24,15,33,8.10
2019,02,24,15,34,12.90
2019,02,24,15,35,12.90
2019,02,24,15,36,9.60
2019,02,24,15,37,6.40
2019,02,24,15,38,6.40
2019,02,24,15,39,8.10
2019,02,24,15,40,6.40
2019,02,24,15,41,3.20
2019,02,24,15,42,4.80
2019,02,24,15,43,6.40
2019,02,24,15,44,4.80
2019,02,24,15,45,4.80
2019,02,24,15,46,4.80
2019,02,24,15,47,3.20
2019,02,24,15,48,6.40
2019,02,24,15,49,6.40
2019,02,24,15,50,4.80
2019,02,24,15,51,3.20
2019,02,24,15,52,4.80
2019,02,24,15,53,6.40
2019,02,24,15,54,11.30
2019,02,24,15,55,6.40
2019,02,24,15,56,6.40
2019,02,24,15,57,6.40
2019,02,24,15,58,3.20
2019,02,24,15,59,4.80
2019,02,24,16,00,11.30
2019,02,24,16,01,8.10
2019,02,24,16,02,8.10
2019,02,24,16,03,3.20
2019,02,24,16,04,8.10
2019,02,24,16,05,6.40
2019,02,24,16,06,9.60
2019,02,24,16,07,6.40
2019,02,24,16,08,4.80
2019,02,24,16,09,8.10
2019,02,24,16,10,8.10
2019,02,24,16,11,4.80
2019,02,24,16,12,4.80
2019,02,24,16,13,11.30
2019,02,24,16,14,4.80
2019,02,24,16,15,11.30
2019,02,24,16,16,11.30
2019,02,24,16,17,9.60
2019,02,24,16,18,6.40
2019,02,24,16,19,6.40
2019,02,24,16,20,9.60
2019,02,24,16,21,6.40
2019,02,24,16,22,3.20
2019,02,24,16,23,4.80
2019,02,24,16,24,4.80
2019,02,24,16,25,6.40
2019,02,24,16,26,6.40
2019,02,24,16,27,9.60
2019,02,24,16,28,11.30
2019,02,24,16,29,6.40
2019,02,24,16,30,6.40
2019,02,24,16,31,4.80
2019,02,24,16,32,4.80
2019,02,24,16,33,6.40
2019,02,24,16,34,3.20
2019,02,24,16,35,3.20
2019,02,24,16,36,6.40
2019,02,24,16,37,4.80
2019,02,24,16,38,3.20
2019,02,24,16,39,4.80
2019,02,24,16,40,3.20
2019,02,24,16,41,6.40
2019,02,24,16,42,4.80
2019,02,24,16,43,4.80
2019,02,24,16,44,6.40
2019,02,24,16,45,6.40
2019,02,24,16,46,6.40
2019,02,24,16,47,6.40
2019,02,24,16,48,3.20
2019,02,24,16,49,4.80
2019,02,24,16,50,6.40
2019,02,24,16,51,4.80
2019,02,24,16,52,6.40
2019,02,24,16,53,4.80
2019,02,24,16,54,4.80
2019,02,24,16,55,3.20
2019,02,24,16,56,8.10
2019,02,24,16,57,4.80
2019,02,24,16,58,3.20
2019,02,24,16,59,1.60
2019,02,24,17,00,3.20
2019,02,24,17,01,3.20
2019,02,24,17,02,3.20
2019,02,24,17,03,1.60
2019,02,24,17,04,1.60
2019,02,24,17,05,3.20
2019,02,24,17,06,3.20
2019,02,24,17,07,1.60
2019,02,24,17,08,1.60
2019,02,24,17,09,1.60
2019,02,24,17,10,3.20
2019,02,24,17,11,3.20
2019,02,24,17,12,3.20
2019,02,24,17,13,3.20
2019,02,24,17,14,4.80
2019,02,24,17,15,3.20
2019,02,24,17,16,1.60
2019,02,24,17,17,4.80
2019,02,24,17,18,4.80
2019,02,24,17,19,3.20
2019,02,24,17,20,1.60
2019,02,24,17,21,3.20
2019,02,24,17,22,1.60
2019,02,24,17,23,1.60
2019,02,24,17,24,1.60
2019,02,24,17,25,1.60
2019,02,24,17,26,1.60
2019,02,24,17,27,1.60
2019,02,24,17,28,3.20
2019,02,24,17,29,3.20
2019,02,24,17,30,3.20
2019,02,24,17,31,4.80
2019,02,24,17,32,3.20
2019,02,24,17,33,1.60
2019,02,24,17,34,1.60
2019,02,24,17,35,1.60
2019,02,24,17,36,3.20
2019,02,24,17,37,3.20
2019,02,24,17,38,4.80
2019,02,24,17,39,4.80
2019,02,24,17,40,3.20
2019,02,24,17,41,3.20
2019,02,24,17,42,3.20
2019,02,24,17,43,3.20
2019,02,24,17,44,3.20
2019,02,24,17,45,6.40
2019,02,24,17,46,3.20
2019,02,24,17,47,3.20
2019,02,24,17,48,3.20
2019,02,24,17,49,4.80
2019,02,24,17,50,3.20
2019,02,24,17,51,4.80
2019,02,24,17,52,4.80
2019,02,24,17,53,3.20
2019,02,24,17,54,3.20
2019,02,24,17,55,4.80
2019,02,24,17,56,4.80
2019,02,24,17,57,4.80
2019,02,24,17,58,4.80
2019,02,24,17,59,4.80
2019,02,24,18,00,4.80
2019,02,24,18,01,4.80
2019,02,24,18,02,3.20
2019,02,24,18,03,4.80
2019,02,24,18,04,4.80
2019,02,24,18,05,4.80
2019,02,24,18,06,4.80
2019,02,24,18,07,8.10
2019,02,24,18,08,6.40
2019,02,24,18,09,4.80
2019,02,24,18,10,4.80
2019,02,24,18,11,4.80
2019,02,24,18,12,4.80
2019,02,24,18,13,4.80
2019,02,24,18,14,4.80
2019,02,24,18,15,4.80
2019,02,24,18,16,3.20
2019,02,24,18,17,4.80
2019,02,24,18,18,3.20
2019,02,24,18,19,4.80
2019,02,24,18,20,6.40
2019,02,24,18,21,4.80
2019,02,24,18,22,1.60
2019,02,24,18,23,6.40
2019,02,24,18,24,4.80
2019,02,24,18,25,4.80
2019,02,24,18,26,4.80
2019,02,24,18,27,3.20
2019,02,24,18,28,4.80
2019,02,24,18,29,4.80
2019,02,24,18,30,6.40
2019,02,24,18,31,6.40
2019,02,24,18,32,6.40
2019,02,24,18,33,4.80
2019,02,24,18,34,4.80
2019,02,24,18,35,6.40
2019,02,24,18,36,4.80
2019,02,24,18,37,4.80
2019,02,24,18,38,6.40
2019,02,24,18,39,8.10
2019,02,24,18,40,4.80
2019,02,24,18,41,8.10
2019,02,24,18,42,6.40
2019,02,24,18,43,6.40
2019,02,24,18,44,6.40
2019,02,24,18,45,4.80
2019,02,24,18,46,3.20
2019,02,24,18,47,6.40
2019,02,24,18,48,6.40
2019,02,24,18,49,6.40
2019,02,24,18,50,4.80
2019,02,24,18,51,4.80
2019,02,24,18,52,4.80
2019,02,24,18,53,3.20
2019,02,24,18,54,4.80
2019,02,24,18,55,4.80
2019,02,24,18,56,3.20
2019,02,24,18,57,4.80
2019,02,24,18,58,6.40
2019,02,24,18,59,4.80
2019,02,24,19,00,6.40
2019,02,24,19,01,6.40
2019,02,24,19,02,8.10
2019,02,24,19,03,6.40
2019,02,24,19,04,6.40
2019,02,24,19,05,4.80
2019,02,24,19,06,4.80
2019,02,24,19,07,4.80
2019,02,24,19,08,8.10
2019,02,24,19,09,4.80
2019,02,24,19,10,6.40
2019,02,24,19,11,9.60
2019,02,24,19,12,8.10
2019,02,24,19,13,11.30
2019,02,24,19,14,4.80
2019,02,24,19,15,4.80
2019,02,24,19,16,9.60
2019,02,24,19,17,4.80
2019,02,24,19,18,8.10
2019,02,24,19,19,6.40
2019,02,24,19,20,6.40
2019,02,24,19,21,4.80
2019,02,24,19,22,4.80
2019,02,24,19,23,4.80
2019,02,24,19,24,4.80
2019,02,24,19,25,8.10
2019,02,24,19,26,8.10
2019,02,24,19,27,4.80
2019,02,24,19,28,3.20
2019,02,24,19,29,1.60
2019,02,24,19,30,3.20
2019,02,24,19,31,4.80
2019,02,24,19,32,4.80
2019,02,24,19,33,3.20
2019,02,24,19,34,6.40
2019,02,24,19,35,4.80
2019,02,24,19,36,3.20
2019,02,24,19,37,1.60
2019,02,24,19,38,1.60
2019,02,24,19,40,3.20
2019,02,24,19,41,6.40
2019,02,24,19,42,6.40
2019,02,24,19,43,3.20
2019,02,24,19,44,3.20
2019,02,24,19,45,3.20
2019,02,24,19,46,3.20
2019,02,24,19,47,6.40
2019,02,24,19,48,4.80
2019,02,24,19,49,4.80
2019,02,24,19,50,6.40
2019,02,24,19,51,6.40
2019,02,24,19,52,3.20
2019,02,24,19,53,6.40
2019,02,24,19,54,6.40
2019,02,24,19,55,1.60
2019,02,24,19,56,3.20
2019,02,24,19,57,3.20
2019,02,24,19,58,3.20
2019,02,24,19,59,3.20
2019,02,24,20,00,1.60
2019,02,24,20,01,1.60
2019,02,24,20,02,3.20
2019,02,24,20,03,1.60
2019,02,24,20,06,6.40
2019,02,24,20,07,6.40
2019,02,24,20,08,3.20
2019,02,24,20,09,1.60
2019,02,24,20,10,1.60
2019,02,24,20,11,1.60
2019,02,24,20,12,1.60
2019,02,24,20,14,1.60
2019,02,24,20,15,1.60
2019,02,24,20,16,1.60
2019,02,24,20,17,1.60
2019,02,24,20,18,3.20
2019,02,24,20,19,1.60
2019,02,24,20,20,3.20
2019,02,24,20,21,1.60
2019,02,24,20,22,1.60
2019,02,24,20,23,4.80
2019,02,24,20,24,4.80